Location: ??? ?????
(30.6482°N, 60.5850°E)
Time: 22:22:49
(UTC+00:00)

Cosmos 614 Rocket - Pass Details

Date: 09 April 2020
Orbit: 734 x 763 km, 74.1° (Epoch: 25 May)

Event Time Altitude Azimuth Distance (km) Brightness Sun altitude
Rises 15:06:57 0° 198° (SSW) 3,209 7.3 -10.3°
Reaches altitude 10° 15:09:19 10° 200° (SSW) 2,287 6.5 -10.8°
Maximum altitude 15:14:31 77° 286° (WNW) 783 4.2 -11.8°
Drops below altitude 10° 15:19:44 10° 13° (NNE) 2,293 6.5 -12.9°
Sets 15:22:06 0° 15° (NNE) 3,218 7.3 -13.4°
